Regional Weather Roundup
Issued by NWS Northern Indiana

Home | Current Version | Previous Version | Text Only | Print | Product List | Glossary Off
Versions: 1 2 3 4 5 6 7 8 9 10 11 12 13 14 15 16 17 18 19 20 21 22 23 24 25 26 27 28 29 30 31 32 33 34 35 36 37 38 39 40 41 42 43 44 45 46 47 48 49 50

000
ASUS43 KIWX 280410
RWRIWX

KIWX WEATHER ROUNDUP
NATIONAL WEATHER SERVICE NORTHERN INDIANA
1200 AM EDT SAT MAR 28 2015

NOTE: "FAIR" INDICATES FEW OR NO CLOUDS BELOW 12,000 FEET WITH NO
SIGNIFICANT WEATHER AND/OR OBSTRUCTIONS TO VISIBILITY.

* THESE STATIONS ARE NOT UNDER NWS QUALITY CONTROL. THEY ALSO MAY NOT
  REPORT WEATHER SUCH AS PRECIPITATION OR FOG.

INZ001>027-280500-
NORTHERN INDIANA

CITY           SKY/WX    TMP DP  RH WIND       PRES   REMARKS
GARY*          CLEAR     28   7  42 N15       30.22R WCI  16
VALPARAISO     CLEAR     22  12  65 N9        30.19R WCI  12
MICHIGAN CITY* MOCLDY    25  10  54 N7        30.20S WCI  17
LAPORTE*       CLOUDY    25  14  64 N12       30.19R WCI  14
KNOX*            N/A     21   3  45 N10       30.18S WCI  10
SOUTH BEND     CLEAR     17  10  74 NW6       30.18R WCI   9
GOSHEN         CLEAR     20  11  68 N10       30.16R WCI   9
MONTICELLO*    CLEAR     21  14  74 N8        30.19S WCI  11
LOGANSPORT*    PTCLDY    21  14  73 N7        30.19R WCI  13
ROCHESTER*     CLEAR     23  14  68 N6        30.18R WCI  16
WARSAW*        CLEAR     19  12  73 NW5       30.16R WCI  13
ANGOLA*        CLEAR     19  12  73 N7        30.12R WCI  10
FORT WAYNE     CLEAR     21  12  68 NW10      30.15R WCI  10
HUNTINGTON*    CLEAR     20   9  62 NW6       30.15S WCI  13
PERU/GRISSOM   CLEAR     21  11  66 N10       30.15S WCI   9
MARION*        CLEAR     21  11  66 N8        30.16S WCI  11

$$
INZ028>050-280500-
CENTRAL INDIANA

CITY           SKY/WX    TMP DP  RH WIND       PRES   REMARKS
LAFAYETTE      CLEAR     21  12  68 N7        30.20R WCI  12
KOKOMO*          N/A     21  10  63 N12       30.17R WCI   9
MUNCIE*        CLEAR     22  13  68 N13       30.14R WCI  10
INDIANAPOLIS   CLEAR     23  10  57 N12       30.15R WCI  12

$$
MIZ043>046-050>051-056>058-064>065-071>073-077>080-280500-
SOUTHWEST LOWER MICHIGAN

CITY           SKY/WX    TMP DP  RH WIND       PRES   REMARKS
BATTLE CREEK   CLEAR     20   2  45 N10       30.16R WCI   9
BENTON HARBOR  CLEAR     21  10  62 N8        30.19R WCI  11
COLDWATER*     CLEAR     20  11  68 NW5       30.14R WCI  13
HILLSDALE*     CLEAR     20   5  53 N3        30.11R
HOLLAND        CLEAR     20   5  52 N8        30.20R WCI  10
GRAND RAPIDS   CLEAR     18   1  47 N9        30.19R WCI   7
KALAMAZOO      CLEAR     17   7  64 N8        30.17R WCI   7
STURGIS*       CLEAR     19  10  68 CALM      30.14S
THREE RIVERS*  FAIR      21  11  64 N7        30.16R WCI  12

$$
OHZ001>008-015>018-024>025-280500-
NORTHWEST OHIO

CITY           SKY/WX    TMP DP  RH WIND       PRES   REMARKS
WAUSEON*       FAIR      21  12  68 N5        30.14R WCI  15
DEFIANCE       CLEAR     21  12  68 NW5       30.15R WCI  15
FINDLAY        CLEAR     22  15  75 NE7       30.11R WCI  13
TOLEDO EXPRESS CLEAR     18  10  71 N3        30.13R
TOLEDO METCALF CLEAR     21  11  65 CALM      30.15R
LIMA           CLEAR     24  12  60 NE5       30.10R WCI  18

$$
AND FOR LAKE MICHIGAN COASTAL AND OPEN LAKE BUOY OBSERVATIONS

STATION/POSITION TEMP    WIND        PRES    VSBY  WAVE
                 AIR SEA DIR/SP/G                  HT/PER
                 (F)     (DEG/KT/KT) (MB)    (MI)  (FT/S)
CALUMET HARBOR    26     360/ 13/ 18 1022.0R
MICHIGAN CITY     24     350/ 23/ 26   N/A
BURNS HARBOR      26      20/ 19/ 27 1023.0S
SAINT JOSEPH      23      10/  7/ 14 1022.4F

$$
&&



USA.gov is the U.S. government's official web portal to all federal, state and local government web resources and services.